Change the Weather History Date:

Thursday, November 29, 2012

  Actual Average Record
Temperature  
Mean Temperature 55 °F 52 °F  
Max Temperature 60 °F 62 °F 75 °F (2013)
Min Temperature 49 °F 41 °F 29 °F (2004)
Degree Days  
Heating Degree Days 10    
Month to date heating degree days 247  
Since 1 July heating degree days 735  
Cooling Degree Days 0    
Month to date cooling degree days 11  
Year to date cooling degree days 79  
Growing Degree Days 5 (Base 50)    
Moisture  
Dew Point 54 °F    
Average Humidity 88    
Maximum Humidity 100    
Minimum Humidity 75    
Precipitation  
Precipitation 0.05 in - 1.99 in (1970)
Month to date precipitation 2.39  
Year to date precipitation 14.77  
Since 1 July precipitation 2.84  
Sea Level Pressure  
Sea Level Pressure 30.03 in    
Wind  
Wind Speed 3 mph (NW)    
Max Wind Speed 17 mph    
Max Gust Speed 24 mph    
Visibility 9 miles    
Events Rain    
T = Trace of Precipitation, MM = Missing Value Source: NWS Daily Summary

Daily Weather History Graph

Daily Weather History Graph

Search for Another Location

Airport or City:

Trip Planner

Search our weather history database for the weather conditions in past years. The results will help you decide how hot, cold, wet, or windy it might be!

Date:

Astronomy

Nov. 29, 2012 Rise Set
Actual Time 7:00 AM PST 4:50 PM PST
Civil Twilight 6:31 AM PST 5:19 PM PST
Nautical Twilight 5:59 AM PST 5:51 PM PST
Astronomical Twilight 5:28 AM PST 6:22 PM PST
Moon 5:58 PM PST (11/29) 7:51 AM PST (11/29)
Length of Visible Light 10h 47m
Length of Day
9h 50m
Full, 99% of the Moon is Illuminated
Nov 29
Full
Dec 6
Last Quarter
Dec 13
New
Dec 19
First Quarter
Dec 28
Full

Hourly Weather History & Observations

Time (PST) Temp. Dew Point Humidity Pressure Visibility Wind Dir Wind Speed Gust Speed Precip Events Conditions
12:53 AM 50.0 °F 48.9 °F 96% 30.09 in 10.0 mi NNW 4.6 mph - N/A   Partly Cloudy
1:53 AM 50.0 °F 48.9 °F 96% 30.08 in 10.0 mi WNW 5.8 mph - N/A   Mostly Cloudy
2:53 AM 52.0 °F 50.0 °F 93% 30.08 in 10.0 mi NW 3.5 mph - N/A   Mostly Cloudy
3:53 AM 52.0 °F 50.0 °F 93% 30.08 in 10.0 mi NW 4.6 mph - 0.01 in   Clear
4:53 AM 51.1 °F 50.0 °F 96% 30.08 in 10.0 mi NNW 5.8 mph - N/A   Scattered Clouds
5:53 AM 51.1 °F 48.9 °F 92% 30.08 in 10.0 mi NNW 3.5 mph - N/A   Scattered Clouds
6:53 AM 52.0 °F 50.0 °F 93% 30.08 in 10.0 mi Calm Calm - N/A   Clear
7:53 AM 52.0 °F 50.0 °F 93% 30.09 in 10.0 mi Calm Calm - N/A   Clear
8:53 AM 55.0 °F 51.1 °F 86% 30.09 in 10.0 mi Calm Calm - N/A   Clear
9:53 AM 55.9 °F 52.0 °F 87% 30.09 in 10.0 mi WNW 3.5 mph - N/A   Overcast
10:53 AM 59.0 °F 52.0 °F 78% 30.09 in 10.0 mi Calm Calm - N/A   Overcast
11:53 AM 57.0 °F 55.0 °F 93% 30.07 in 9.0 mi North 3.5 mph - 0.01 in Rain Light Rain
12:53 PM 57.0 °F 55.0 °F 93% 30.05 in 8.0 mi NW 3.5 mph - 0.00 in Rain Light Rain
1:18 PM 57.2 °F 55.4 °F 94% 30.04 in 1.8 mi North 3.5 mph - 0.02 in Rain Light Rain
1:26 PM 57.2 °F 55.4 °F 94% 30.03 in 3.0 mi NNW 4.6 mph - 0.02 in Rain Light Rain
1:53 PM 57.9 °F 55.9 °F 93% 30.03 in 10.0 mi WNW 4.6 mph - 0.02 in   Overcast
2:53 PM 57.9 °F 55.9 °F 93% 30.01 in 10.0 mi Calm Calm - N/A   Overcast
3:53 PM 57.9 °F 55.9 °F 93% 30.00 in 10.0 mi WNW 3.5 mph - N/A   Overcast
4:53 PM 57.9 °F 55.9 °F 93% 30.01 in 10.0 mi NW 3.5 mph - N/A   Overcast
5:53 PM 57.9 °F 55.9 °F 93% 30.00 in 9.0 mi NW 4.6 mph - 0.00 in Rain Light Rain
6:53 PM 57.9 °F 57.0 °F 97% 30.00 in 10.0 mi NW 3.5 mph - 0.01 in   Overcast
7:53 PM 57.9 °F 57.9 °F 100% 29.99 in 10.0 mi Calm Calm - N/A   Overcast
8:53 PM 57.9 °F 57.9 °F 100% 29.98 in 7.0 mi WNW 3.5 mph - N/A   Overcast
9:05 PM 57.2 °F 57.2 °F 100% 29.98 in 10.0 mi NW 3.5 mph - N/A   Overcast
9:15 PM 57.2 °F 55.4 °F 94% 29.96 in 10.0 mi NNW 4.6 mph - N/A   Overcast
9:30 PM 57.2 °F 55.4 °F 94% 29.98 in 10.0 mi WNW 5.8 mph - N/A   Mostly Cloudy
9:53 PM 57.0 °F 55.9 °F 96% 29.97 in 10.0 mi Calm Calm - N/A   Overcast
10:53 PM 59.0 °F 55.9 °F 90% 29.98 in 10.0 mi West 3.5 mph - N/A   Mostly Cloudy
11:21 PM 60.8 °F 57.2 °F 88% 29.97 in 10.0 mi South 15.0 mph - N/A   Overcast
11:53 PM 59.0 °F 55.9 °F 90% 29.94 in 10.0 mi Calm Calm - N/A   Mostly Cloudy